Bookmark and Share
Track history (hours):
 

Nieuw Amsterdam

Last reported at 2014-Apr-23 12:31 UTC. Time now 2014-Apr-23 13:16 UTC.
Position N 43°33' E 010°18'.

Length 285 m; draft 8 m.

Type: Ship. MMSI: 246648000.

NotesDate/timePositionNaut miles runAvg speedWind from/ knotsBaromVisibWave heightAir tempDewpointWater temp
2014-Apr-23 12:31N 43°33' E 010°18'0 0.0
2014-Apr-23 11:31N 43°33' E 010°18'0 0.0
2014-Apr-23 10:31N 43°33' E 010°18'0 0.0
2014-Apr-23 09:31N 43°33' E 010°18'0 0.0
2014-Apr-23 08:31N 43°33' E 010°18'0 0.0
2014-Apr-23 07:31N 43°33' E 010°18'0 0.0
2014-Apr-23 06:28N 43°33' E 010°18'0 0.0
2014-Apr-23 05:31N 43°33' E 010°18'0 0.0
2014-Apr-23 04:33N 43°33' E 010°18'4 3.8
2014-Apr-23 03:33N 43°31' E 010°14'10 9.8
2014-Apr-23 02:33N 43°32' E 010°01'1010.4
2014-Apr-23 01:33N 43°34' E 009°47'1010.3
2014-Apr-23 00:33N 43°35' E 009°32'1110.5
2014-Apr-22 23:33N 43°36' E 009°18'1110.6
2014-Apr-22 22:33N 43°37' E 009°03'1110.6
2014-Apr-22 21:33N 43°38' E 008°49'1110.5
2014-Apr-22 20:33N 43°39' E 008°34'1110.6
2014-Apr-22 19:33N 43°40' E 008°20'3110.4
2014-Apr-22 16:32N 43°44' E 007°37'8 0.7
2014-Apr-22 05:26N 43°44' E 007°26'4 4.4
2014-Apr-22 04:33N 43°40' E 007°27'1010.0
2014-Apr-22 03:33N 43°33' E 007°18'1010.3
2014-Apr-22 02:33N 43°25' E 007°08'2110.4
2014-Apr-22 00:34N 43°09' E 006°50'1010.5
2014-Apr-21 23:33N 43°01' E 006°41'1010.4
2014-Apr-21 22:33N 42°56' E 006°29'1010.1
2014-Apr-21 21:34N 42°54' E 006°15'1010.3
2014-Apr-21 20:34N 42°56' E 006°01'1010.2
2014-Apr-21 19:34N 42°58' E 005°48'1010.3
2014-Apr-21 18:34N 43°02' E 005°35'1010.2
2014-Apr-21 17:33N 43°06' E 005°22'712.9
2014-Apr-21 17:00N 43°06' E 005°12'612.8 150 / 41006.310.8 15.5 8.017.8
2014-Apr-21 16:33N 43°11' E 005°09'10 9.5
2014-Apr-21 15:33N 43°20' E 005°16'3 3.0
2014-Apr-21 14:28N 43°21' E 005°20'0 0.0
2014-Apr-21 13:30N 43°21' E 005°20'0 0.0
2014-Apr-21 12:33N 43°21' E 005°20'0 0.0
2014-Apr-21 11:32N 43°21' E 005°20'0 0.0
2014-Apr-21 10:32N 43°21' E 005°20'0 0.0
2014-Apr-21 09:32N 43°21' E 005°20'0 0.0
2014-Apr-21 08:32N 43°21' E 005°20'0 0.0
2014-Apr-21 07:32N 43°21' E 005°20'0 0.0
2014-Apr-21 06:32N 43°21' E 005°20'0 0.4
2014-Apr-21 05:33N 43°21' E 005°20'8 8.0
2014-Apr-21 04:33N 43°16' E 005°11'1312.7
2014-Apr-21 03:33N 43°05' E 005°03'1413.4
2014-Apr-21 02:33N 42°55' E 004°50'1313.2
2014-Apr-21 01:33N 42°45' E 004°38'1313.1
2014-Apr-21 00:33N 42°36' E 004°25'1313.0
2014-Apr-20 23:33N 42°27' E 004°13'1312.6
2014-Apr-20 22:33N 42°18' E 004°01'1413.6
2014-Apr-20 21:33N 42°08' E 003°48'1313.2
2014-Apr-20 20:33N 41°59' E 003°36'1413.1
2014-Apr-20 19:31N 41°49' E 003°23'1212.7
2014-Apr-20 18:32N 41°42' E 003°09'1313.5
2014-Apr-20 17:33N 41°35' E 002°54'1018.8
2014-Apr-20 17:00N 41°30' E 002°42'3 6.4 050 / 151006.110.8 0.514.1 9.419.5
2014-Apr-20 16:33N 41°28' E 002°39'1313.1
2014-Apr-20 15:33N 41°21' E 002°24'1110.8
2014-Apr-20 14:32N 41°18' E 002°10'1 0.1
2014-Apr-20 03:33N 41°18' E 002°11'1110.4
2014-Apr-20 02:32N 41°08' E 002°11'1010.0
2014-Apr-20 01:33N 40°58' E 002°11'1010.3
2014-Apr-20 00:33N 40°48' E 002°11'1010.2
2014-Apr-19 23:33N 40°37' E 002°11'10 9.8
2014-Apr-19 22:33N 40°28' E 002°12'1110.5
2014-Apr-19 21:33N 40°17' E 002°12'1010.4
2014-Apr-19 20:33N 40°07' E 002°12'1110.7
2014-Apr-19 19:31N 39°56' E 002°12'1010.0
2014-Apr-19 18:30N 39°46' E 002°12'12 9.8
2014-Apr-19 17:14N 39°33' E 002°15'710.8
2014-Apr-19 16:33N 39°29' E 002°22'610.4
2014-Apr-19 16:00N 39°24' E 002°18'1330.2 140 / 231006.110.8 0.520.613.818.4
2014-Apr-19 15:33N 39°27' E 002°35'7 2.0
2014-Apr-19 12:17N 39°33' E 002°38'0 0.0
2014-Apr-19 11:34N 39°33' E 002°38'0 0.0
2014-Apr-19 10:34N 39°33' E 002°38'0 0.0
2014-Apr-19 09:25N 39°33' E 002°38'0 0.0
2014-Apr-19 08:34N 39°33' E 002°38'0 0.0
2014-Apr-19 07:33N 39°33' E 002°38'0 0.0
2014-Apr-19 06:33N 39°33' E 002°38'0 0.3
2014-Apr-19 05:33N 39°33' E 002°38'6 6.0
2014-Apr-19 04:33N 39°28' E 002°35'1111.3
2014-Apr-19 03:34N 39°19' E 002°26'1212.1
2014-Apr-19 02:33N 39°10' E 002°16'1211.6
2014-Apr-19 01:33N 39°01' E 002°07'1212.2
2014-Apr-19 00:33N 38°51' E 001°57'1211.9
2014-Apr-18 23:33N 38°42' E 001°47'1212.0
2014-Apr-18 22:33N 38°33' E 001°37'1312.3
2014-Apr-18 21:28N 38°31' E 001°20'1112.3
2014-Apr-18 20:32N 38°29' E 001°06'1313.5
2014-Apr-18 19:33N 38°27' E 000°49'5214.8
2014-Apr-18 16:04N 38°20' W 000°16'8106.0
2014-Apr-18 16:00N 38°18' W 000°06'1631.3 200 / 161011.610.8 0.517.714.218.9
2014-Apr-18 15:29N 38°19' W 000°26'14 1.3
2014-Apr-18 04:32N 38°05' W 000°23'2017.6
2014-Apr-18 03:25N 37°46' W 000°24'8 9.8
2014-Apr-18 02:33N 37°38' W 000°27'1717.0
2014-Apr-18 01:33N 37°26' W 000°42'1817.1
2014-Apr-18 00:30N 37°13' W 000°58'1717.2
2014-Apr-17 23:30N 37°02' W 001°15'1717.2
2014-Apr-17 22:32N 36°51' W 001°31'1717.3
2014-Apr-17 21:33N 36°40' W 001°47'2718.0
2014-Apr-17 20:03N 36°22' W 002°12'126 6.1
2014-Apr-16 23:33N 36°16' W 004°48'1212.4
2014-Apr-16 22:34N 36°11' W 005°02'1212.4
2014-Apr-16 21:33N 36°06' W 005°16'6 5.8
2014-Apr-16 20:32N 36°09' W 005°22'0 0.0
2014-Apr-16 19:32N 36°09' W 005°22'0 0.0
2014-Apr-16 18:29N 36°09' W 005°22'0 0.0
2014-Apr-16 17:32N 36°09' W 005°22'0 0.0
2014-Apr-16 16:32N 36°09' W 005°22'0 0.0
2014-Apr-16 15:32N 36°09' W 005°22'0 0.0
2014-Apr-16 14:29N 36°09' W 005°22'0 0.0
2014-Apr-16 13:32N 36°09' W 005°22'0 0.0
2014-Apr-16 12:32N 36°09' W 005°22'0 0.0
2014-Apr-16 11:32N 36°09' W 005°22'1 1.3
2014-Apr-16 10:33N 36°08' W 005°23'9 9.5
2014-Apr-16 09:34N 35°59' W 005°26'1814.8
2014-Apr-16 08:19N 35°54' W 005°48'1214.8
2014-Apr-16 07:31N 35°54' W 006°03'8114.6
2014-Apr-16 02:00N 36°00' W 007°42'15717.4 300 / 71017.0 5.4 17.014.618.0
2014-Apr-15 17:00N 36°24' W 010°54'2914.5 160 / 131016.110.8 0.517.212.918.7
2014-Apr-15 15:00N 36°24' W 011°30'16618.4 260 / 121016.010.8 0.517.212.720.2
2014-Apr-15 06:00N 36°48' W 014°54'2020.1 040 / 31013.910.8 16.312.121.5
2014-Apr-15 05:00N 36°54' W 015°18'40417.6 180 / 41013.0 16.112.720.0
2014-Apr-14 06:00N 37°48' W 023°42'13217.7 020 / 231012.7 1.514.0 9.320.5
2014-Apr-13 22:33N 38°07' W 026°27'1717.3
2014-Apr-13 21:34N 38°10' W 026°49'1717.0
2014-Apr-13 20:34N 38°12' W 027°10'1716.9
2014-Apr-13 19:33N 38°15' W 027°32'1717.0
2014-Apr-13 18:33N 38°17' W 027°53'1717.2
2014-Apr-13 17:33N 38°19' W 028°15'1616.3
2014-Apr-13 16:33N 38°27' W 028°33'6 6.1
2014-Apr-13 15:33N 38°32' W 028°37'0 0.0
2014-Apr-13 14:33N 38°32' W 028°37'0 0.0
2014-Apr-13 13:33N 38°32' W 028°37'0 0.0
2014-Apr-13 12:33N 38°32' W 028°37'  

Dump ship's entire track history

sailing weather and tide predictions

Nieuw Amsterdam — PBWQ — position and weather